Regional Weather Roundup
Issued by NWS

Home | Current Version | Previous Version | Graphics & Text | Print | Product List | Glossary Off
Versions: 1 2 3 4 5 6 7 8 9 10 11 12 13 14 15 16 17 18 19 20 21 22 23 24 25 26 27 28 29 30 31 32 33 34 35 36 37 38 39 40 41 42 43 44 45 46 47 48 49 50

000
ASUS43 KDTX 290101
RWRMI
MICHIGAN HOURLY REGIONAL WEATHER ROUNDUP
NATIONAL WEATHER SERVICE DETROIT/PONTIAC MI
800 PM EST FRI NOV 28 2014

NOTE: "FAIR" INDICATES FEW OR NO CLOUDS BELOW 12,000 FEET WITH NO
SIGNIFICANT WEATHER AND/OR OBSTRUCTION TO VISIBILITY.

MIZ047>049-052>055-059>063-066>070-074>076-081>083-290200-
SOUTHEAST LOWER MICHIGAN

CITY           SKY/WX    TMP DP  RH WIND       PRES   REMARKS
ADRIAN         CLOUDY    27  22  81 S8        30.11F WCI  19
ALMA           CLOUDY    24  22  93 SE6       30.09S WCI  17
ANN ARBOR      CLOUDY    26  21  81 SE8       30.11F WCI  18
BAD AXE        FLURRIES  24  20  85 S6        30.13S WCI  17
CARO           CLOUDY    25  19  80 SE3       30.12S
DETROIT CITY   CLOUDY    28  23  81 S7        30.15F HAZE    WCI  21
DETROIT        CLOUDY    27  22  81 SE6       30.14F WCI  20
FLINT          CLOUDY    26  21  81 S10       30.11S WCI  16
GROSSE ILE     CLOUDY    28  23  80 S13       30.13F WCI  18
HILLSDALE      CLOUDY    27  23  84 SE8       30.05F WCI  19
HOWELL         CLOUDY    25  22  89 SE9       30.08F WCI  15

CITY           SKY/WX    TMP DP  RH WIND       PRES   REMARKS
JACKSON        CLOUDY    26  21  81 S8        30.08R WCI  18
LAMBERTVILLE   CLOUDY    30  23  74 SE6       30.12F WCI  24
LANSING        CLOUDY    26  19  74 S10       30.09S WCI  16
LAPEER         FLURRIES  24  20  86 SE7       30.12S WCI  16
MASON          CLOUDY    27  22  82 S9        30.08S WCI  17
MONROE         CLOUDY    28  23  80 S7        30.12F WCI  21
MT. CLEMENS    LGT SNOW  27  25  93 S6        30.13S FOG     WCI  20
PONTIAC        FLURRIES  24  20  84 S7        30.10F WCI  16
PORT HOPE        N/A     24  17  74 S5        30.13S WCI  18
PORT HURON     LGT SNOW  25  23  93 S6        30.15F WCI  18
TRI CITIES     LGT SNOW  26  21  81 SE9       30.11F WCI  17
TROY           CLOUDY    27  24  87 S5        30.14F FOG     WCI  22
SAGINAW HB     LGT SNOW  27  23  86 SE9       30.11S WCI  17
$$
MIZ043>046-050>051-056>058-064>065-071>073-077>080-290200-
SOUTHWEST LOWER MICHIGAN

CITY           SKY/WX    TMP DP  RH WIND       PRES   REMARKS
BATTLE CREEK   CLOUDY    29  19  66 S12       30.05F WCI  19
BENTON HARBOR  MOCLDY    27  20  75 SE10      30.02F WCI  17
BIG RAPIDS     LGT SNOW  23  22  95 SE7       30.03F WCI  15
COLDWATER      CLOUDY    30  22  73 S9        30.07R WCI  21
FREMONT        CLOUDY    25  19  78 SE6       30.03F WCI  18
HOLLAND        CLOUDY    29  20  69 SE10      30.03F WCI  20
GRAND RAPIDS   CLOUDY    26  19  74 SE9       30.05F WCI  17
IONIA          CLOUDY    27  21  79 S9        30.06F WCI  18
KALAMAZOO      PTCLDY    27  19  72 S6        30.06S WCI  20
LUDINGTON      LGT SNOW  22  20  91 SE9       30.01F WCI  12
MARSHALL       CLOUDY    27  20  77 S7        30.06S WCI  19
MOUNT PLEASANT LGT SNOW  24  22  91 SE7       30.07F WCI  16
MUSKEGON       CLOUDY    27  18  69 SE10      30.04F WCI  17
SOUTH HAVEN    CLOUDY    29  21  71 SE8       30.02F WCI  21
$$
MIZ016>042-290200-
NORTHERN LOWER MICHIGAN

CITY           SKY/WX    TMP DP  RH WIND       PRES   REMARKS
ALPENA         LGT SNOW  21  18  88 S6        30.11S FOG     WCI  13
BEAVER ISLAND  CLOUDY    27  23  85 SE6       30.02S WCI  20
BELLAIRE       LGT SNOW  24  19  81 SE8       30.05S WCI  16
CADILLAC       LGT SNOW  21  19  89 SE10      29.99F WCI  10
CHARLEVOIX     CLOUDY    23  19  86 SE7       30.05F WCI  15
FRANKFORT      LGT SNOW  25  22  90 SE12      30.01S WCI  14
GAYLORD        FLURRIES  19  15  84 SE9       30.00F WCI   8
GRAYLING       CLOUDY    21  18  91 SE7       30.03F FOG     WCI  12
HARBOR SPRINGS CLOUDY    23  18  82 E5        30.04F WCI  16
HOUGHTON LAKE  LGT SNOW  21  18  88 SE8       30.04F FOG     WCI  11
MANISTEE       MOCLDY    25  18  74 SE9       30.02F WCI  15
OSCODA         FLURRIES  23  21  91 CALM      30.11F
PELLSTON       CLOUDY    23  17  78 SE9       30.05F WCI  13
ROGERS CITY    CLOUDY    22  19  91 S8        30.10F WCI  12
TRAVERSE CITY  FLURRIES  25  19  78 VRB3      30.02F
$$
MIZ007>008-015-290200-
EASTERN UPPER MICHIGAN

CITY           SKY/WX    TMP DP  RH WIND       PRES   REMARKS
KINROSS        CLOUDY    19  19 100 SE6       30.05S WCI  11
MACKINAC ISLAN CLOUDY    24  19  81 S10G20    30.05S WCI  13
NEWBERRY       FLURRIES  17  16  95 E6        30.01F WCI   9
S. S. MARIE    CLOUDY    19  15  84 E5        30.09R WCI  12
MUNISING         N/A     20  15  81 VRB3      29.99F
$$
MIZ004>006-011>014-085-290200-
CENTRAL UPPER MICHIGAN

CITY           SKY/WX    TMP DP  RH WIND       PRES   REMARKS
MANISTIQUE     CLOUDY    21  19  95 NE5       29.99F WCI  14
ESCANABA       CLOUDY    21  18  86 NE7       29.96S WCI  13
MENOMINEE      CLOUDY    21  19  93 NW5       29.93F WCI  15
SAWYER-GWINN   CLOUDY    16  12  86 SE5       29.92F WCI   9
$$
MIZ001>003-009>011-084-290200-
WESTERN UPPER MICHIGAN

CITY           SKY/WX    TMP DP  RH WIND       PRES   REMARKS
IRON MOUNTAIN  CLOUDY    15  11  83 CALM      29.91F
HOUGHTON       CLOUDY    19   9  65 E6        29.90F WCI  11
COPPER HARBOR    N/A     17  10  74 CALM      29.95F
IRONWOOD       CLOUDY    16  10  79 CALM      29.85F
$$

ABBREVIATIONS USED IN REMARKS
   TC - TEMPERATURE IN CELSIUS
  WCI - WIND CHILL INDEX
   HX - HEAT INDEX
  VSB - VISIBILITY



USA.gov is the U.S. government's official web portal to all federal, state and local government web resources and services.